Flag for Hungary Weather past 2 weeks in Miskolc, Hungary

Now
44 °F

Overcast.


Feels Like: 43 °F
Forecast: 31 / 45 °F
Wind: 3 mph from Northwest

Location: Miskolc

Current Time: Mar 4, 2015 at 6:30:05 PM

Latest Report: Mar 4, 2015 at 5:00 PM


Visibility: 22 mi

Pressure: 30.20 "Hg

Humidity: 56%

Dew point: 30 °F

Location of MiskolcLocation

Historic Weather in Miskolc — Graph

°F

Miskolc temperature yesterday

Maximum temperature yesterday: 48 °F (at 2:00 PM)
Minimum temperature yesterday: 34 °F (at 11:00 PM)
Average temperature yesterday: 42 °F

Past Weeks' High & Low Weather Summary

 TemperatureHumidityPressure
High54 °F (Feb 24, 2:00 PM)93% (Feb 23, 8:00 AM)30.76 "Hg (Feb 23, 8:00 AM)
Low19 °F (Feb 18, 6:00 AM)23% (Feb 18, 3:00 PM)29.66 "Hg (Mar 2, 4:00 PM)
Average40 °F73%30.05 "Hg
* Reported Feb 17 4:00 PM — Mar 4 4:00 PM, Miskolc, Weather by CustomWeather, © 2015

Note: Actual official high and low records may vary slightly from our data, if they occured in-between our weather recording intervals... More about our weather records

Advertising

Miskolc weather history for previous 24 hours

 ConditionsComfort  
Time TempWeatherWind HumidityBarometerVisibility
4:00 PM
Wed, Mar 4
47 °FPartly sunny.2 mph48%30.19 "Hg22 mi
3:00 PM47 °FOvercast.5 mph55%30.18 "Hg19 mi
2:00 PM45 °FOvercast.3 mph69%30.20 "Hg19 mi
1:00 PM47 °FSprinkles. Overcast.6 mph49%30.19 "Hg19 mi
12:00 PM49 °FOvercast.5 mph35%30.18 "Hg25 mi
11:00 AM52 °FOvercast.5 mph29%30.16 "Hg25 mi
10:00 AM49 °FPartly sunny.5 mph32%30.16 "Hg25 mi
9:00 AM38 °FPartly sunny.1 mph54%30.19 "Hg25 mi
8:00 AM38 °FPartly sunny.3 mph51%30.19 "Hg25 mi
7:00 AM39 °FPartly sunny.2 mph50%30.19 "Hg22 mi
6:00 AM39 °FPassing clouds.2 mph52%30.21 "Hg19 mi
5:00 AM30 °FPassing clouds.No wind79%30.24 "Hg16 mi
3:00 AM29 °FClear.1 mph79%30.24 "Hg19 mi
2:00 AM29 °FClear.No wind76%30.24 "Hg19 mi
1:00 AM30 °FClear.No wind73%30.25 "Hg19 mi
11:00 PM
Tue, Mar 3
34 °FClear.1 mph61%30.24 "Hg19 mi
10:00 PM39 °FClear.1 mph46%30.23 "Hg25 mi
9:00 PM41 °FClear.2 mph42%30.22 "Hg25 mi
8:00 PM37 °FClear.No wind54%30.22 "Hg25 mi
7:00 PM40 °FClear.No wind43%30.20 "Hg28 mi
6:00 PM43 °FPassing clouds.3 mph36%30.17 "Hg31 mi
Weather by CustomWeather, © 2015

See weather overviewHow to use our weather pages